Location: ?ejkovice
(49.0137°N, 14.3821°E)
Time: 07:41:47
(UTC+00:00)

CZ-2C R/B - Pass Details

Date: 23 May 2024
Orbit: 782 x 868 km, 98.4° (Epoch: 17 April)

Event Time Altitude Azimuth Distance (km) Brightness Sun altitude
Rises 23:19:43 0° 114° (ESE) 3,265 5.6 -20.2°
Reaches altitude 10° 23:22:46 10° 95° (E) 2,341 5.0 -20.2°
Drops below altitude 10° 23:29:15 10° 16° (NNE) 2,361 6.2 -20.0°
Enters shadow 00:31:38 -59° 164° (SSE) 11,924 8.5 -17.4°
Maximum altitude 01:05:34 86° 253° (WSW) 792 2.5 -14.9°
